Regional Weather Roundup
Issued by NWS Binghamton, NY

Home | Current Version | Previous Version | Text Only | Print | Product List | Glossary On
Versions: 1 2 3 4 5 6 7 8 9 10 11 12 13 14 15 16 17 18 19 20 21 22 23 24 25 26 27 28 29 30 31 32 33 34 35 36 37 38 39 40 41 42 43 44 45 46 47 48 49 50
000
ASUS41 KBGM 180510
RWRBGM
RWRBGM
BINGHAMTON REGIONAL WEATHER ROUNDUP
NATIONAL WEATHER SERVICE BINGHAMTON NY
100 AM EDT THU SEP 18 2014

Note: "fair" indicates few or no clouds below 12,000 feet with no
significant weather and/or obstructions to visibility.

* = Station(s) that does not report precipitation, such as rain,
snow, etc, also no thunder or fog.

!NYZ009-015>018-022>025-036-037-044>046-055>057-062-180600
...CENTRAL NEW YORK...

CITY           SKY/WX    TMP DP  RH WIND       PRES   REMARKS
BINGHAMTON     CLEAR     53  46  77 CALM      29.99F
CORTLAND       FAIR      43  43 100 CALM      30.02S
DANSVILLE      CLOUDY    51  48  89 SE6       30.01S
ELMIRA         CLEAR     45  45 100 CALM      30.00S
ITHACA         CLEAR     47  46  96 E6        30.01S
HAMILTON       CLEAR     43  41  93 CALM      30.00S
MONTICELLO     CLEAR     46  45  93 MISG      30.01S
NORWICH        CLOUDY    43  43 100 CALM      30.01S FOG
PENN YAN       PTCLDY    53  51  93 S7        29.99S
ROME           CLEAR     47  45  93 CALM      29.99S
SIDNEY         FOG       45  45 100 CALM      30.01S VSB 1/4
SYRACUSE       PTCLDY    51  47  86 CALM      29.97S
$$

!PAZ038>040-043-044-047-048-072-180600
...NORTHEAST PENNSYLVANIA...

CITY           SKY/WX    TMP DP  RH WIND       PRES   REMARKS
HAZLETON       CLEAR     43  43 100 CALM      30.03F FOG
SCRANTON       CLEAR     49  43  80 E6        29.99F
TOWANDA*       CLEAR     46  46 100 CALM      30.01S
$$
&&
KEY
WCI = WIND CHILL INDEX
VSB = VISIBILITY
HX  = HEAT INDEX
$$



USA.gov is the U.S. government's official web portal to all federal, state and local government web resources and services.